www.pogodaiklimat.ru
ПОГОДА в Порт-Таунсенде
Время
и дата
04:55 06.02
05:15 06.02
05:35 06.02
05:55 06.02
06:15 06.02
06:35 06.02
06:55 06.02
07:15 06.02
07:35 06.02
07:55 06.02
08:15 06.02
08:35 06.02
08:55 06.02
09:15 06.02
09:35 06.02
09:55 06.02
10:15 06.02
10:35 06.02
10:55 06.02
11:15 06.02
11:35 06.02
11:55 06.02
12:15 06.02
12:35 06.02
12:55 06.02
13:15 06.02
13:35 06.02
13:55 06.02
14:15 06.02
14:35 06.02
14:55 06.02
15:15 06.02
15:35 06.02
15:55 06.02
16:15 06.02
16:35 06.02
16:55 06.02
17:15 06.02
17:35 06.02
17:55 06.02
18:15 06.02
18:35 06.02
18:55 06.02
19:15 06.02
19:35 06.02
19:55 06.02
20:15 06.02
20:35 06.02
Ветер
(напр.,м/с)
Видим. Явления Облачность Т
(С)
Тd
(С)
f
(%)
Тe
(С)
Тes
(С)
Комфортность P
(гПа)
Po
(гПа)
Тmin
(С)
Tmax
(С)
R
(мм)
R24
(мм)
S
(см)
ЮВ 3 16 км 10/10 120 м +6.0 +6.0 100 +2 +2 1022.3
ЮВ 3 16 км 10/10 120 м +6.0 +6.0 100 +2 +2 1022.3
ЮВ 2 16 км 10/10 180 м +6.0 +6.0 100 +3 +3 1022.6
ЮВ 3 16 км 10/10 240 м +6.0 +6.0 100 +2 +2 1022.6
ЮВ 3 16 км 10/5 300 m
[Ac]
+6.0 +5.0 93 +3 +3 1022.6
штиль 0 16 км 10/10 300 м +6.0 +5.0 93 +5 +5 1023.0
ЮВ 3 16 км 10/10 300 м +6.0 +5.0 93 +3 +3 1023.0
штиль 0 16 км 10/10 270 м +5.0 +5.0 100 +4 +4 1023.0
штиль 0 16 км 10/10 240 м +6.0 +5.0 93 +5 +5 1023.3
штиль 0 10 км дымка 10/10 210 м +6.0 +5.0 93 +5 +5 1023.3
штиль 0 8 км дымка 10/10 150 м +6.0 +6.0 100 +5 +5 1023.6
штиль 0 14 км 10/10 180 м +6.0 +6.0 100 +5 +5 1023.6
В 2 16 км 10/10 210 м +6.0 +6.0 100 +3 +3 1023.3
штиль 0 16 км 10/10 210 м +7.0 +6.0 93 +6 +6 1023.6
ЮВ 2 16 км 10/10 180 м +7.0 +6.0 93 +5 +5 1023.6
ЮВ 2 16 км 10/10 240 м +7.0 +7.0 100 +5 +5 1023.3
ЮВ 3 16 км 10/10 270 м +7.0 +6.0 93 +4 +4 1023.3
ЮВ 3 16 км 8/8 270 m
[Ac]
+8.0 +6.0 87 +5 +6 1023.3
ЮВ 3 16 км 5/2 270 m
[Ac]
+8.0 +6.0 87 +5 +7 1023.3
ЮВ 2 16 км 5/0 2400 m
[Ac]
+8.0 +6.0 87 +6 +8 1023.3
нст 3 16 км 8/0 2250 m
[Ac]
+8.0 +7.0 93 +5 +7 1023.3
ЮВ 3 16 км 2/2 390 m
[Ac]
+9.0 +7.0 87 +6 +9 1023.0
ЮВ 4 16 км 8/8 390 м +9.0 +7.0 87 +6 +7 1022.6
нст 3
{7}
16 км 10/10 420 м +9.0 +7.0 87 +6 +6 1022.6
нст 2 16 км 10/10 420 м +9.0 +7.0 87 +7 +7 1022.3
штиль 0 16 км 10/8 390 m
[Ac]
+9.0 +7.0 87 +8 +8 1022.3
Ю 2 16 км 5/5 390 м +9.0 +7.0 87 +7 +9 1021.9
ЮВ 2 16 км 5/2 390 m
[Ac]
+9.0 +7.0 87 +7 +10 1021.6
штиль 0 16 км 8/2 390 m
[Ac]
+9.0 +7.0 87 +8 +10 1021.6
З 2 16 км 8/0 3600 m
[Ac]
+9.0 +7.0 87 +7 +9 1021.6
штиль 0 16 км 8/0 3600 m
[Ac]
+9.0 +7.0 87 +8 +10 1021.6
штиль 0 16 км 5/0 3600 m
[Ac]
+9.0 +7.0 87 +8 +10 1021.6
штиль 0 16 км 2/0 3600 m
[Ac]
+10.0 +7.0 82 +9 +11 1021.6
ЮВ 2 16 км 2/0 2850 m
[Ac]
+10.0 +7.0 82 +9 +10 1020.9
штиль 0 16 км ясно +10.0 +6.0 76 +9 +10 1021.3
штиль 0 16 км 2/0 2700 m
[Ac]
+10.0 +7.0 82 +9 +10 1020.6
ЮЗ 2 16 км ясно +8.0 +7.0 93 +6 +6 1020.3
ЮВ 2 16 км ясно +7.0 +6.0 93 +5 +5 1019.9
нст 2 16 км 2/0 3600 m
[Ac]
+7.0 +6.0 93 +5 +5 1019.9
Ю 2 16 км ясно +8.0 +5.0 81 +6 +6 1019.6
нст 3
{7}
16 км ясно +8.0 +5.0 81 +5 +5 1019.6
Ю 3
{7}
16 км 5/0 3300 m
[Ac]
+9.0 +5.0 76 +7 +7 1019.6
ЮЗ 4
{9}
16 км 5/0 2400 m
[Ac]
+8.0 +5.0 81 +5 +5 1019.2
ЮЗ 4
{8}
16 км 8/2 450 m
[Ac]
+8.0 +6.0 87 +5 +5 1019.2
ЮЗ 5
{8}
16 км 10/2 450 m
[Ac]
+8.0 +6.0 87 +4 +4 1019.6
ЮЗ 4
{8}
16 км 10/8 480 m
[Ac]
+8.0 +6.0 87 +5 +5 1019.2
Ю 4
{7}
16 км 10/8 480 m
[Ac]
+8.0 +6.0 87 +5 +5 1019.2
ЮЗ 4
{7}
16 км 10/10 450 м +8.0 +6.0 87 +5 +5 1019.2
Местоположение метеостанции Jefferson County International Airport: широта 48.0552 долгота -122.8116 высота над уровнем моря 33 м.
В архиве по умолчанию представлена погода в Порт-Таунсенде за последние 1-2 суток. Обновление информации о фактической погоде в базе происходит ежечасно! Архивные данные за месяц целиком и за предыдущие месяцы Вы можете получить, выбрав интересующий диапазон дат из раскрывающегося списка и нажав кнопку "Ввод!".
Внимание! Архив погоды МЕТАР в базе сайта по станциям, не включенным в климатический монитор, хранится не более 60 дней. Нет смысла пытаться выбрать более раннюю дату.
*Определитесь, кто Вы:
Внимание! Время в таблицах - местное (без учета летнего времени). Для получения всемирного времени необходимо вычесть поправку, которая равна -8 ч.
Смотрите также архив погоды в соседних городах и на ближайших метеорологических станциях:
Партнеры нашего сайта:      
Пояснения к столбцам:
  • Ветер - указаны скорость ветра в м/с - средняя за 10 мин, порывы в срок и между сроками (в фигурных скобках) и направление, откуда дует ветер: С - северный,
  • СВ - северо-восточный, В - восточный, ЮВ - юго-восточный, Ю - южный, ЮЗ - юго-западный, З - западный, СЗ - северо-западный.
  • Видимость - горизонтальная дальность видимости в метрах или километрах. При видимости от 1 до 10 км при отсутствии осадков обычно наблюдается дымка, при ухудшении видимости до 1 км и менее - туман. В сухую погоду видимость может ухудшаться дымом, пылью или мглою.
  • Явления - указаны атмосферные явления, наблюдавшиеся в срок или в последний час перед сроком; фигурными скобками обозначены явления, наблюдавшиеся между сроками (за 1-3 часа до срока); квадратными скобками обозначены град или гололедные отложения с указанием их диаметра в мм.
  • Облачность - указаны через наклонную черту общая и нижняя облачность в баллах и высота нижней границы облаков в метрах; квадратными скобками обозначены формы облаков: Ci - перистые, Cs - перисто-слоистые, Cc - перисто-кучевые, Ac - высококучевые, As - высокослоистые, Sc - слоисто-кучевые, Ns - слоисто-дождевые, Cu - кучевые, Cb - кучево-дождевые. Подробнее классификацию облаков см. в Атласе облаков (PDF).
  • T - Температура воздуха - температура, измеренная на высоте 2 м над землей.
  • Td - Температура точки росы - температура, при понижении до которой содержащийся в воздухе водяной пар достигнет насыщения.
  • f - Относительная влажность воздуха - влажноcть воздуха, измеренная на высоте 2 м над землей.
  • Te - Эффективная температура - температура, которую ощущает одетый по сезону человек в тени. Характеристика душности погоды. При расчете учитывается влияние влажности воздуха и скорости ветра на теплоощущения человека.
  • Tes - Эффективная температура на солнце - температура, которую ощущает человек, с поправкой на солнечный нагрев. Характеристика знойности погоды. Зависит от высоты солнца над горизонтом, облачности и скорости ветра. Ночью, в пасмурную погоду, а также при ветре 12 м/с и более поправка равна нулю.
  • P - Атмосферное давление - приведенное к уровню моря атмосферное давление.
  • Po - Атмосферное давление - измеренное на уровне метеостанции атмосферное давление.
  • Tmin - Минимальная температура - минимум температуры воздуха на высоте 2 м над землей.
  • Tmax - Максимальная температура - максимум температуры воздуха на высоте 2 м над землей.
  • R - Количество осадков - Количество выпавших осадков за период времени, мм. При наведении курсора мыши на число - период времени, за который выпало указанное количество осадков.
  • R24 - Количество осадков - Количество выпавших осадков за 24 часа, мм.
  • S - Снежный покров - Высота снежного покрова, см. При наведении курсора мыши на число - состояние снежного покрова и степень покрытия местности в баллах.